sat.trackr.live / text

‹ back to catalog

STARLINK-3996

NORAD 52617 · 2022-052V

PAYLOAD ACTIVE UNKNOWN

§ Identity

Operator
Country
US
Launch date
2022-05-14
Launch site
AFETR
Launch vehicle
Mass (kg)
RCS (m²)

Purposes: comms

External: N2YO · Heavens-Above · Gunter

§ Orbital elements

Epoch: 2026-05-25T02:52:34.841280Z

Period
95.44 min
Inclination
53.2140°
Eccentricity
0.0001213
Mean motion
15.08839623 rev/d
Perigee alt
538.9 km
Apogee alt
540.6 km
Semi-major
6,917.9 km
B*
2.9336e-5
RAAN
286.0134°
Arg perigee
88.5632°
Mean anomaly
271.5499°
Rev number
22,252

§ Raw data

STARLINK-39961 52617U 22052V   26145.11984770  .00000179  00000+0  29336-4 0  99902 52617  53.2140 286.0134 0001213  88.5632 271.5499 15.08839623222526

JSON: /api/v1/satellites/52617 · /tle

For live sub-satellite position, see the globe view (requires WebGL).

§ Visibility from observer

Set your observer location to see the next 7 days of passes ≥ 10°. The values pass through the URL so the page stays shareable.

No JS? Fill the form by hand. The geolocation button needs JavaScript.